Regional Weather Roundup
Issued by NWS Green Bay, WI

Home | Current Version | Previous Version | Graphics & Text | Print | Product List | Glossary Off
Versions: 1 2 3 4 5 6 7 8 9 10 11 12 13 14 15 16 17 18 19 20 21 22 23 24 25 26 27 28 29 30 31 32 33 34 35 36 37 38 39 40 41 42 43 44 45 46 47 48 49 50

000
ASUS43 KGRB 210400
RWRGRB

NORTH-CENTRAL AND NORTHEAST WISCONSIN REGIONAL WEATHER ROUNDUP
NATIONAL WEATHER SERVICE GREEN BAY WI
1000 PM CST FRI JAN 20 2017

WIZ005-009-010>012-018-019-210500-
NORTH CENTRAL WISCONSIN

CITY           SKY/WX    TMP DP  RH WIND       PRES   REMARKS
IRONWOOD       LGT RAIN  35  34  96 E3        29.61F
MANITOWISH WTR NOT AVBL
ARBOR VITAE    NOT AVBL
EAGLE RIVER    NOT AVBL
LAND O LAKES   NOT AVBL
RHINELANDER    CLOUDY    34  34 100 SE7       29.63R FOG
PHILLIPS       CLOUDY    33  33 100 SE5       29.61R FOG
ANTIGO         NOT AVBL
TOMAHAWK       NOT AVBL
MERRILL        CLOUDY    33  33 100 SE5         N/A  FOG
$$

WIZ013-073-210500-
NORTHEAST WISCONSIN

CITY           SKY/WX    TMP DP  RH WIND       PRES   REMARKS
IRON MOUNTAIN  FOG       33  31  92 SE5       29.65R VSB 1/4
MARINETTE      NOT AVBL
$$

WIZ017-030-035>037-045-210500-
CENTRAL WISCONSIN

CITY           SKY/WX    TMP DP  RH WIND       PRES   REMARKS
MEDFORD        NOT AVBL
WAUSAU         CLOUDY    33  33 100 SE7       29.61F FOG
MOSINEE        FOG       34  34 100 E6        29.63F VSB 1
MARSHFIELD     FOG       33  32  96 E6        29.60F VSB 3/4
WISC RAPIDS    CLOUDY    34  34 100 SE5       29.63S FOG
STEVENS POINT  NOT AVBL
WAUPACA        NOT AVBL
SHAWANO        NOT AVBL
CLINTONVILLE   CLOUDY    34  32  93 CALM      29.66F FOG
WAUTOMA        CLOUDY    35  34  96 SE3       29.65S FOG
$$

WIZ038-039-048-051-210500-
FOX VALLEY

CITY           SKY/WX    TMP DP  RH WIND       PRES   REMARKS
NWS GREEN BAY  FOG       35  35 100 CALM      29.67F VSB 3/4
APPLETON       FOG       34  34 100 E5        29.63F VSB 1/4
OSHKOSH        FOG       34  33  96 E6        29.64S VSB 1/4
FOND DU LAC    CLOUDY    36  33  89 E5        29.65S FOG
$$

WIZ022-050-052-210500-
EAST CENTRAL WISCONSIN

CITY           SKY/WX    TMP DP  RH WIND       PRES   REMARKS
EPHRAIM        NOT AVBL
WASHINGTON ISL NOT AVBL
STURGEON BAY   FOG       34  33  96 NE3       29.68F VSB 1
MANITOWOC      NOT AVBL
SHEBOYGAN      CLOUDY    35  34  96 SE3       29.66F FOG
$$

LMZ563-521-522-541>543-210500-
LAKESHORE

STATION/POSITION TIME  TEMP    WIND        PRES    VSBY  WAVE
                       AIR SEA DIR/SP/G                  HT/PER
                 (UTC) (F)     (DEG/KT/KT) (MB)    (MI)  (FT/S)
SHEBOYGAN LKSHOR 0300   36     120/  7/  7 1005.2R
KEWAUNEE LKSHORE 0330   35     180/  2/  6 1004.9F
NORTHPORT PIER   0340   33        CALM     1005.4S
SISTER BAY LKSHO 0320   33        CALM       N/A
$$




USA.gov is the U.S. government's official web portal to all federal, state and local government web resources and services.